• In United Kingdom
  • List of Countries
  • For 7 days
  • Water Temperature
  • Satellite Maps
  • Weather Map
  • Weather Widgets
  • user-avatar
    Login

    Hourly Weather Xai-Xai

    Today, 25 November, Saturday

    Time Temperature Precipitation Wind Pressure Humidity
    00:00 +17°C° 0 mm 2 mps 740 mmHg 60%
    01:00 +17°C° 0 mm 2 mps 740 mmHg 61%
    02:00 +16°C° 0 mm 2 mps 740 mmHg 63%
    03:00 +16°C° 0 mm 1 mps 740 mmHg 63%
    04:00 +16°C° 0 mm 1 mps 740 mmHg 64%
    05:00 +15°C° 0 mm 1 mps 740 mmHg 64%
    06:00 +16°C° 0 mm 1 mps 740 mmHg 59%
    07:00 +19°C° 0 mm 1 mps 740 mmHg 54%
    08:00 +20°C° 0 mm 1 mps 741 mmHg 49%
    09:00 +21°C° 0 mm 1 mps 741 mmHg 44%
    10:00 +23°C° 0 mm 1 mps 741 mmHg 38%
    11:00 +24°C° 0 mm 1 mps 741 mmHg 32%
    12:00 +25°C° 0 mm 2 mps 740 mmHg 29%
    13:00 +26°C° 0 mm 2 mps 740 mmHg 25%
    14:00 +27°C° 0 mm 3 mps 740 mmHg 22%
    15:00 +26°C° 0 mm 3 mps 739 mmHg 22%
    16:00 +25°C° 0 mm 3 mps 739 mmHg 22%
    17:00 +24°C° 0 mm 3 mps 739 mmHg 23%
    18:00 +22°C° 0 mm 3 mps 740 mmHg 24%
    19:00 +21°C° 0 mm 3 mps 740 mmHg 25%
    20:00 +21°C° 0 mm 3 mps 740 mmHg 27%
    21:00 +20°C° 0 mm 2 mps 740 mmHg 28%
    22:00 +19°C° 0 mm 2 mps 741 mmHg 29%
    23:00 +19°C° 0 mm 2 mps 741 mmHg 30%

    Tomorrow, 26 November, Sunday

    Time Temperature Precipitation Wind Pressure Humidity
    00:00 +18°C° 0 mm 2 mps 741 mmHg 31%
    01:00 +17°C° 0 mm 2 mps 741 mmHg 32%
    02:00 +17°C° 0 mm 2 mps 741 mmHg 34%
    03:00 +16°C° 0 mm 2 mps 741 mmHg 35%
    04:00 +16°C° 0 mm 2 mps 741 mmHg 37%
    05:00 +15°C° 0 mm 2 mps 741 mmHg 39%
    06:00 +16°C° 0 mm 2 mps 741 mmHg 37%
    07:00 +17°C° 0 mm 2 mps 741 mmHg 35%
    08:00 +19°C° 0 mm 2 mps 742 mmHg 34%
    09:00 +20°C° 0 mm 3 mps 742 mmHg 30%
    10:00 +22°C° 0 mm 4 mps 742 mmHg 26%
    11:00 +25°C° 0 mm 4 mps 742 mmHg 23%
    12:00 +26°C° 0 mm 5 mps 742 mmHg 22%
    13:00 +26°C° 0 mm 5 mps 741 mmHg 20%
    14:00 +27°C° 0 mm 5 mps 741 mmHg 19%
    15:00 +26°C° 0 mm 4 mps 741 mmHg 21%
    16:00 +25°C° 0 mm 4 mps 741 mmHg 23%
    17:00 +23°C° 0 mm 4 mps 741 mmHg 25%
    18:00 +22°C° 0 mm 3 mps 741 mmHg 28%
    19:00 +21°C° 0 mm 3 mps 741 mmHg 31%
    20:00 +20°C° 0 mm 3 mps 742 mmHg 34%
    21:00 +19°C° 0 mm 3 mps 742 mmHg 37%
    22:00 +18°C° 0 mm 3 mps 742 mmHg 41%
    23:00 +18°C° 0 mm 3 mps 742 mmHg 44%

    Day after tomorrow, 27 November, Monday

    Time Temperature Precipitation Wind Pressure Humidity
    00:00 +17°C° 0 mm 2 mps 742 mmHg 47%
    01:00 +17°C° 0 mm 2 mps 742 mmHg 50%
    02:00 +16°C° 0 mm 2 mps 741 mmHg 53%
    03:00 +16°C° 0 mm 2 mps 741 mmHg 54%
    04:00 +15°C° 0 mm 2 mps 741 mmHg 56%
    05:00 +15°C° 0 mm 2 mps 741 mmHg 58%
    06:00 +16°C° 0 mm 2 mps 742 mmHg 55%
    07:00 +17°C° 0 mm 2 mps 742 mmHg 51%
    08:00 +18°C° 0 mm 2 mps 742 mmHg 48%
    09:00 +20°C° 0 mm 3 mps 742 mmHg 42%
    10:00 +22°C° 0 mm 3 mps 742 mmHg 36%
    11:00 +24°C° 0 mm 3 mps 742 mmHg 30%
    12:00 +25°C° 0 mm 3 mps 742 mmHg 27%
    13:00 +26°C° 0 mm 3 mps 741 mmHg 24%
    14:00 +26°C° 0 mm 3 mps 741 mmHg 21%
    15:00 +26°C° 0 mm 3 mps 741 mmHg 22%
    16:00 +25°C° 0 mm 3 mps 740 mmHg 23%
    17:00 +24°C° 0 mm 3 mps 740 mmHg 24%
    18:00 +22°C° 0 mm 3 mps 741 mmHg 27%
    19:00 +21°C° 0 mm 3 mps 741 mmHg 30%
    20:00 +20°C° 0 mm 2 mps 742 mmHg 33%
    21:00 +19°C° 0 mm 2 mps 741 mmHg 38%
    22:00 +19°C° 0 mm 2 mps 741 mmHg 43%
    23:00 +18°C° 0 mm 2 mps 741 mmHg 48%

    28 November, Tuesday

    Time Temperature Precipitation Wind Pressure Humidity
    00:00 +18°C° 0 mm 1 mps 741 mmHg 51%
    01:00 +18°C° 0 mm 1 mps 741 mmHg 54%
    02:00 +16°C° 0 mm 1 mps 740 mmHg 58%
    03:00 +16°C° 0 mm 1 mps 740 mmHg 59%
    04:00 +15°C° 0 mm 1 mps 740 mmHg 59%
    05:00 +15°C° 0 mm 1 mps 740 mmHg 60%
    06:00 +16°C° 0 mm 1 mps 741 mmHg 55%
    07:00 +19°C° 0 mm 1 mps 741 mmHg 50%
    08:00 +20°C° 0 mm 1 mps 742 mmHg 44%
    09:00 +22°C° 0 mm 1 mps 741 mmHg 39%
    10:00 +23°C° 0 mm 1 mps 741 mmHg 34%
    11:00 +25°C° 0 mm 1 mps 741 mmHg 29%
    12:00 +25°C° 0 mm 1 mps 741 mmHg 26%
    13:00 +26°C° 0 mm 2 mps 740 mmHg 24%
    14:00 +27°C° 0 mm 2 mps 739 mmHg 21%
    15:00 +26°C° 0 mm 2 mps 739 mmHg 22%
    16:00 +25°C° 0 mm 3 mps 739 mmHg 23%
    17:00 +24°C° 0 mm 3 mps 739 mmHg 24%
    18:00 +22°C° 0 mm 3 mps 740 mmHg 26%
    19:00 +21°C° 0 mm 2 mps 740 mmHg 28%
    20:00 +20°C° 0 mm 2 mps 741 mmHg 30%
    21:00 +20°C° 0 mm 2 mps 741 mmHg 31%
    22:00 +19°C° 0 mm 2 mps 741 mmHg 33%
    23:00 +18°C° 0 mm 2 mps 741 mmHg 34%

    29 November, Wednesday

    Time Temperature Precipitation Wind Pressure Humidity
    00:00 +18°C° 0 mm 2 mps 740 mmHg 36%
    01:00 +17°C° 0 mm 2 mps 740 mmHg 38%
    02:00 +17°C° 0 mm 2 mps 740 mmHg 39%
    03:00 +16°C° 0 mm 1 mps 740 mmHg 41%
    04:00 +16°C° 0 mm 1 mps 740 mmHg 43%
    05:00 +15°C° 0 mm 1 mps 740 mmHg 45%
    06:00 +16°C° 0 mm 1 mps 741 mmHg 42%
    07:00 +19°C° 0 mm 1 mps 741 mmHg 38%
    08:00 +20°C° 0 mm 1 mps 742 mmHg 35%
    09:00 +21°C° 0 mm 2 mps 742 mmHg 31%
    10:00 +23°C° 0 mm 2 mps 742 mmHg 26%
    11:00 +25°C° 0 mm 3 mps 742 mmHg 22%
    12:00 +26°C° 0 mm 3 mps 741 mmHg 20%
    13:00 +27°C° 0 mm 3 mps 741 mmHg 18%
    14:00 +28°C° 0 mm 4 mps 740 mmHg 17%
    15:00 +26°C° 0 mm 4 mps 740 mmHg 18%
    16:00 +25°C° 0 mm 3 mps 740 mmHg 20%
    17:00 +24°C° 0 mm 3 mps 740 mmHg 21%
    18:00 +22°C° 0 mm 3 mps 741 mmHg 23%
    19:00 +21°C° 0 mm 2 mps 741 mmHg 25%
    20:00 +20°C° 0 mm 2 mps 741 mmHg 27%
    21:00 +19°C° 0 mm 2 mps 741 mmHg 31%
    22:00 +19°C° 0 mm 2 mps 741 mmHg 34%
    23:00 +18°C° 0 mm 2 mps 741 mmHg 37%

    30 November, Thursday

    Time Temperature Precipitation Wind Pressure Humidity
    00:00 +17°C° 0 mm 2 mps 741 mmHg 39%
    01:00 +17°C° 0 mm 2 mps 741 mmHg 40%
    02:00 +17°C° 0 mm 2 mps 741 mmHg 42%
    03:00 +16°C° 0 mm 2 mps 741 mmHg 43%
    04:00 +16°C° 0 mm 2 mps 741 mmHg 43%
    05:00 +16°C° 0 mm 2 mps 741 mmHg 44%
    06:00 +17°C° 0 mm 2 mps 741 mmHg 41%
    07:00 +18°C° 0 mm 2 mps 742 mmHg 38%
    08:00 +19°C° 0 mm 2 mps 742 mmHg 35%
    09:00 +21°C° 0 mm 3 mps 742 mmHg 31%
    10:00 +24°C° 0 mm 3 mps 742 mmHg 26%
    11:00 +25°C° 0 mm 3 mps 742 mmHg 22%
    12:00 +26°C° 0 mm 3 mps 741 mmHg 20%
    13:00 +27°C° 0 mm 3 mps 740 mmHg 18%
    14:00 +28°C° 0 mm 3 mps 740 mmHg 16%
    15:00 +27°C° 0 mm 3 mps 740 mmHg 17%
    16:00 +26°C° 0 mm 3 mps 740 mmHg 18%
    17:00 +24°C° 0 mm 3 mps 740 mmHg 20%
    18:00 +22°C° 0 mm 3 mps 740 mmHg 24%
    19:00 +21°C° 0 mm 3 mps 741 mmHg 28%
    20:00 +20°C° 0 mm 3 mps 741 mmHg 31%
    21:00 +19°C° 0 mm 2 mps 741 mmHg 35%
    22:00 +18°C° 0 mm 2 mps 740 mmHg 39%
    23:00 +18°C° 0 mm 2 mps 740 mmHg 42%
    Show more